| time (UTC) | temp F | wind direction | speed knots | gust knots | rain 1hr in | rain 24hr in | rain mn in | humidity % | barometer mb |
| 20260507053050 | 79 | 0 | 0.0 | 1.7 | 0.00 | 0.00 | 0.00 | 100 | 1016.1 |
| 20260507051550 | 79 | 0 | 0.0 | 3.5 | 0.00 | 0.00 | 0.00 | 100 | 1016.1 |
| 20260507050051 | 79 | 146 | 0.0 | 3.5 | 0.00 | 0.00 | 0.00 | 100 | 1016.3 |
| 20260507044547 | 79 | 0 | 0.0 | 3.5 | 0.00 | 0.00 | 0.00 | 100 | 1016.5 |
| 20260507043051 | 80 | 0 | 0.0 | 0.9 | 0.00 | 0.00 | 0.00 | 100 | 1016.7 |
| 20260507041551 | 80 | 128 | 0.0 | 2.6 | 0.00 | 0.00 | 0.00 | 100 | 1016.9 |
| 20260507040057 | 80 | 0 | 0.0 | 2.6 | 0.00 | 0.00 | 0.00 | 100 | 1017.2 |
| 20260507034556 | 80 | 124 | 0.9 | 3.5 | 0.00 | 0.00 | 0.00 | 100 | 1017.4 |
| 20260507033055 | 80 | 0 | 0.9 | 3.5 | 0.00 | 0.00 | 0.00 | 100 | 1017.6 |
| 20260507031550 | 80 | 0 | 0.0 | 1.7 | 0.00 | 0.00 | 0.00 | 100 | 1017.6 |
| 20260507030055 | 80 | 141 | 0.9 | 3.5 | 0.00 | 0.00 | 0.00 | 100 | 1017.7 |
| 20260507024604 | 81 | 142 | 1.7 | 4.3 | 0.00 | 0.00 | 0.00 | 100 | 1017.8 |
| 20260507023053 | 81 | 0 | 0.9 | 6.1 | 0.00 | 0.00 | 0.00 | 100 | 1017.8 |
| 20260507021553 | 81 | 64 | 0.9 | 4.3 | 0.00 | 0.00 | 0.00 | 100 | 1017.8 |
| 20260507020107 | 81 | 155 | 0.9 | 5.2 | 0.00 | 0.00 | 0.00 | 100 | 1017.8 |
| 20260507014601 | 80 | 135 | 0.9 | 2.6 | 0.00 | 0.00 | 0.00 | 100 | 1017.7 |
| 20260507013055 | 81 | 82 | 0.9 | 5.2 | 0.00 | 0.00 | 0.00 | 100 | 1017.7 |
| 20260507011551 | 81 | 93 | 0.9 | 3.5 | 0.00 | 0.00 | 0.00 | 100 | 1017.6 |
| 20260507010059 | 81 | 44 | 0.0 | 5.2 | 0.00 | 0.00 | 0.00 | 100 | 1017.6 |
| 20260507004602 | 81 | 71 | 1.7 | 5.2 | 0.00 | 0.00 | 0.00 | 100 | 1017.5 |
| 20260507003053 | 81 | 146 | 0.9 | 4.3 | 0.00 | 0.00 | 0.00 | 100 | 1017.4 |
| 20260507001551 | 80 | 0 | 0.0 | 3.5 | 0.00 | 0.00 | 0.00 | 100 | 1017.3 |
| 20260507000053 | 81 | 0 | 0.0 | 2.6 | 0.00 | 0.00 | 0.00 | 100 | 1017.1 |
| 20260506234553 | 81 | 0 | 0.9 | 5.2 | 0.00 | 0.00 | 0.00 | 100 | 1017.1 |
| 20260506233103 | 81 | 140 | 0.0 | 4.3 | 0.00 | 0.00 | 0.00 | 100 | 1016.8 |
| 20260506231556 | 81 | 147 | 0.9 | 4.3 | 0.00 | 0.00 | 0.00 | 100 | 1016.6 |
| 20260506230056 | 81 | 117 | 0.9 | 5.2 | 0.00 | 0.00 | 0.00 | 100 | 1016.6 |
| 20260506224553 | 81 | 129 | 1.7 | 4.3 | 0.00 | 0.00 | 0.00 | 100 | 1016.5 |
| 20260506223059 | 82 | 113 | 1.7 | 5.2 | 0.00 | 0.00 | 0.00 | 100 | 1016.4 |
| 20260506221612 | 82 | 124 | 0.9 | 4.3 | 0.00 | 0.00 | 0.00 | 100 | 1016.2 |
| 20260506220053 | 82 | 73 | 2.6 | 7.0 | 0.00 | 0.00 | 0.00 | 100 | 1015.9 |
| 20260506214556 | 82 | 132 | 1.7 | 6.1 | 0.00 | 0.00 | 0.00 | 100 | 1015.7 |
| 20260506213112 | 82 | 93 | 1.7 | 5.2 | 0.00 | 0.00 | 0.00 | 100 | 1015.6 |
| 20260506211555 | 82 | 137 | 1.7 | 6.1 | 0.00 | 0.00 | 0.00 | 100 | 1015.7 |
| 20260506210052 | 82 | 0 | 1.7 | 4.3 | 0.00 | 0.00 | 0.00 | 100 | 1015.6 |
| 20260506204600 | 83 | 128 | 2.6 | 5.2 | 0.00 | 0.00 | 0.00 | 100 | 1015.6 |
| 20260506203056 | 83 | 134 | 2.6 | 6.1 | 0.00 | 0.00 | 0.00 | 100 | 1015.5 |
| 20260506201550 | 83 | 94 | 2.6 | 7.0 | 0.00 | 0.00 | 0.00 | 100 | 1015.4 |
| 20260506200052 | 83 | 219 | 2.6 | 6.1 | 0.00 | 0.00 | 0.00 | 100 | 1015.3 |
| 20260506194550 | 84 | 235 | 2.6 | 7.8 | 0.00 | 0.00 | 0.00 | 100 | 1015.3 |
| 20260506193053 | 84 | 31 | 3.5 | 8.7 | 0.00 | 0.00 | 0.00 | 100 | 1015.4 |
| 20260506191549 | 85 | 120 | 1.7 | 7.8 | 0.00 | 0.00 | 0.00 | 100 | 1015.6 |
| 20260506190053 | 84 | 256 | 3.5 | 7.8 | 0.00 | 0.00 | 0.00 | 100 | 1015.6 |
| 20260506184553 | 85 | 82 | 2.6 | 8.7 | 0.00 | 0.00 | 0.00 | 100 | 1015.7 |
| 20260506183104 | 85 | 149 | 2.6 | 9.6 | 0.00 | 0.00 | 0.00 | 100 | 1015.8 |
| 20260506181621 | 85 | 94 | 2.6 | 8.7 | 0.00 | 0.00 | 0.00 | 100 | 1015.9 |
| 20260506180054 | 85 | 159 | 3.5 | 9.6 | 0.00 | 0.00 | 0.00 | 100 | 1016.0 |
| 20260506174555 | 84 | 162 | 3.5 | 8.7 | 0.00 | 0.00 | 0.00 | 100 | 1016.2 |
| 20260506173058 | 83 | 123 | 3.5 | 7.8 | 0.00 | 0.00 | 0.00 | 100 | 1016.4 |
| 20260506171600 | 82 | 102 | 2.6 | 7.0 | 0.00 | 0.00 | 0.00 | 100 | 1016.6 |
| 20260506170057 | 82 | 160 | 2.6 | 7.8 | 0.00 | 0.00 | 0.00 | 100 | 1016.8 |
| 20260506164552 | 83 | 60 | 1.7 | 10.4 | 0.00 | 0.00 | 0.00 | 100 | 1017.2 |
| 20260506163103 | 84 | 182 | 2.6 | 8.7 | 0.00 | 0.00 | 0.00 | 100 | 1017.2 |
| 20260506161557 | 85 | 63 | 3.5 | 9.6 | 0.00 | 0.00 | 0.00 | 100 | 1017.5 |
| 20260506160054 | 85 | 147 | 3.5 | 12.2 | 0.00 | 0.00 | 0.00 | 100 | 1017.6 |
| 20260506154601 | 86 | 68 | 2.6 | 8.7 | 0.00 | 0.00 | 0.00 | 100 | 1017.8 |
| 20260506153110 | 85 | 97 | 2.6 | 8.7 | 0.00 | 0.00 | 0.00 | 100 | 1017.9 |
| 20260506151551 | 86 | 150 | 3.5 | 8.7 | 0.00 | 0.00 | 0.00 | 100 | 1017.9 |
| 20260506150059 | 86 | 139 | 3.5 | 8.7 | 0.00 | 0.00 | 0.00 | 100 | 1018.0 |
| 20260506144555 | 87 | 191 | 3.5 | 9.6 | 0.00 | 0.00 | 0.00 | 100 | 1018.2 |
| 20260506143050 | 86 | 203 | 4.3 | 9.6 | 0.00 | 0.00 | 0.00 | 100 | 1018.2 |
| 20260506141549 | 87 | 214 | 3.5 | 10.4 | 0.00 | 0.00 | 0.00 | 100 | 1018.2 |
| 20260506140049 | 86 | 134 | 3.5 | 9.6 | 0.00 | 0.00 | 0.00 | 100 | 1018.1 |
| 20260506134550 | 86 | 64 | 3.5 | 7.8 | 0.00 | 0.00 | 0.00 | 100 | 1018.1 |
| 20260506133049 | 86 | 165 | 3.5 | 8.7 | 0.00 | 0.00 | 0.00 | 100 | 1018.0 |
| 20260506131553 | 86 | 101 | 2.6 | 9.6 | 0.00 | 0.00 | 0.00 | 100 | 1018.1 |
| 20260506130056 | 85 | 111 | 4.3 | 8.7 | 0.00 | 0.00 | 0.00 | 100 | 1018.1 |
| 20260506124551 | 86 | 155 | 3.5 | 11.3 | 0.00 | 0.00 | 0.00 | 100 | 1018.0 |
| 20260506123051 | 85 | 59 | 3.5 | 11.3 | 0.00 | 0.00 | 0.00 | 100 | 1018.1 |
| 20260506121613 | 85 | 55 | 3.5 | 8.7 | 0.00 | 0.00 | 0.00 | 100 | 1018.0 |
| 20260506120151 | 85 | 56 | 3.5 | 10.4 | 0.00 | 0.00 | 0.00 | 100 | 1018.0 |
| 20260506114550 | 84 | 101 | 2.6 | 8.7 | 0.00 | 0.00 | 0.00 | 100 | 1017.9 |
| 20260506113050 | 84 | 110 | 2.6 | 7.8 | 0.00 | 0.00 | 0.00 | 100 | 1017.8 |
| 20260506111551 | 83 | 124 | 3.5 | 9.6 | 0.00 | 0.00 | 0.00 | 100 | 1017.7 |
| 20260506110050 | 83 | 41 | 3.5 | 13.0 | 0.00 | 0.00 | 0.00 | 100 | 1017.5 |
| 20260506104555 | 82 | 306 | 4.3 | 10.4 | 0.00 | 0.00 | 0.00 | 100 | 1017.3 |
| 20260506103054 | 81 | 146 | 4.3 | 11.3 | 0.00 | 0.00 | 0.00 | 100 | 1017.1 |
| 20260506101546 | 80 | 61 | 3.5 | 8.7 | 0.00 | 0.00 | 0.00 | 100 | 1016.8 |
| 20260506100048 | 81 | 108 | 3.5 | 7.8 | 0.00 | 0.00 | 0.00 | 100 | 1016.6 |
| 20260506094550 | 81 | 146 | 3.5 | 7.8 | 0.00 | 0.00 | 0.00 | 100 | 1016.5 |
| 20260506093050 | 81 | 27 | 2.6 | 8.7 | 0.00 | 0.00 | 0.00 | 100 | 1016.4 |
| 20260506091554 | 80 | 126 | 2.6 | 8.7 | 0.00 | 0.00 | 0.00 | 100 | 1016.3 |
| 20260506090057 | 80 | 108 | 0.9 | 7.0 | 0.00 | 0.00 | 0.00 | 100 | 1016.3 |
| 20260506084551 | 80 | 116 | 3.5 | 7.8 | 0.00 | 0.00 | 0.00 | 100 | 1016.3 |
| 20260506083052 | 80 | 115 | 1.7 | 5.2 | 0.00 | 0.00 | 0.00 | 100 | 1016.1 |
| 20260506081554 | 80 | 0 | 1.7 | 4.3 | 0.00 | 0.00 | 0.00 | 100 | 1016.1 |
| 20260506073050 | 80 | 117 | 0.9 | 6.1 | 0.00 | 0.00 | 0.00 | 100 | 1016.0 |
| 20260506071601 | 80 | 100 | 1.7 | 5.2 | 0.00 | 0.00 | 0.00 | 100 | 1015.9 |
| 20260506061554 | 80 | 131 | 0.9 | 5.2 | 0.00 | 0.00 | 0.00 | 100 | 1016.3 |